[ hide orbit diagram ]
For accurate long-term ephemerides, please instead use our Horizons system.This orbit viewer was implemented using two-body methods, and hence should not be used for determining accurate long-term trajectories (over several years or decades) or planetary encounter circumstances.
Orbital Elements at Epoch 2459200.5 (2020-Dec-17.0) TDB
Reference: JPL 16 (heliocentric ecliptic J2000)
Element | Value | Uncertainty (1-sigma) | Units |
e | .01845975784220282 | 7.7625e-08 | |
a | 2.855975617613295 | 1.682e-08 | au |
q | 2.803254999308918 | 2.2156e-07 | au |
i | 12.23816958944013 | 4.1053e-06 | deg |
node | 108.1628910648397 | 3.7511e-05 | deg |
peri | 78.20358091717334 | 0.00014474 | deg |
M | 203.5738463080558 | 0.0001434 | deg |
tp | 2459966.514580076369 (2023-Jan-22.01458008) | 0.0007056 | TDB |
period | 1762.910116492205 4.83 | 1.5574e-05 4.264e-08 | d yr |
n | .2042078019929451 | 1.804e-09 | deg/d |
Q | 2.908696235917672 | 1.713e-08 | au |
|
| | Orbit Determination Parameters
Additional Information
|
[ show covariance matrix ]
Physical Parameter Table
Parameter |
Symbol |
Value |
Units |
Sigma |
Reference |
Notes |
absolute magnitude |
H |
14.59 |
|
n/a |
E2021B10 |
|
diameter |
diameter |
7.272 |
km |
0.318 |
urn:nasa:pds:neowise_diameters_albedos::2.0[mainbelt] (http://adsabs.harvard.edu/abs/2011ApJ...741...68M) |
|
rotation period |
rot_per |
6.295 |
h |
n/a |
LCDB (Rev. 2020-October); Warner et al., 2009 |
Result based on less than full coverage, so that the period may be wrong by 30 percent or so. Published Reference List: [Waszczak, A.; Chang, C.-K.; Ofeck, E.O.; Laher, F.; et al. (2015) Astron. J. 150, A75.] |
geometric albedo |
albedo |
0.058 |
|
0.006 |
urn:nasa:pds:neowise_diameters_albedos::2.0[mainbelt] (http://adsabs.harvard.edu/abs/2011ApJ...741...68M) |
|
|
31232 Slavonice | Discovered 1998 Feb. 1 by J. Ticha and M. Tichy at Klet. |
The pleasant historical town of Slavonice is located in the Three corners (Czech-Moravian-Austrian border). One can admire very rich figural sgraffito façades and diamond vaults. After 1600 there was no more construction, and Slavonice's renaissance style has therefore been preserved. |
NOTE: some special characters may not display properly (any characters within {} are an attempt to place the proper accent above a character) |
Reference: 20061109/MPCPages.arc | Last Updated: 2006-11-13 |
|
|